Time,TemperatureF,DewpointF,PressureIn,WindDirection,WindDirectionDegrees,WindSpeedMPH,WindSpeedGustMPH,Humidity,HourlyPrecipIn,Conditions,Clouds,dailyrainin,SolarRadiationWatts/m^2,SoftwareType,DateUTC
2013-04-15 00:41:00,42.1,37.9,29.89,South,181,0.0,0.0,85,0.00,,,0.00,0,Wunderground v.1.15,2013-04-15 07:41:00,
2013-04-15 00:47:00,42.1,37.9,29.90,South,179,0.0,1.0,85,0.00,,,0.00,0,Wunderground v.1.15,2013-04-15 07:47:00,
2013-04-15 00:52:00,41.9,37.7,29.90,South,179,0.0,1.0,85,0.00,,,0.00,0,Wunderground v.1.15,2013-04-15 07:52:00,
2013-04-15 00:57:00,41.9,37.7,29.90,South,178,0.0,1.0,85,0.00,,,0.00,0,Wunderground v.1.15,2013-04-15 07:57:00,
2013-04-15 01:02:00,41.8,37.6,29.90,South,178,0.0,0.0,85,0.00,,,0.00,0,Wunderground v.1.15,2013-04-15 08:02:00,
2013-04-15 01:07:00,41.6,37.4,29.90,South,178,0.0,0.0,85,0.00,,,0.00,0,Wunderground v.1.15,2013-04-15 08:07:00,
2013-04-15 01:17:00,41.5,37.3,29.90,South,181,0.0,0.0,85,0.00,,,0.00,0,Wunderground v.1.15,2013-04-15 08:17:00,
2013-04-15 01:28:00,41.3,37.4,29.90,South,182,0.0,0.0,86,0.00,,,0.00,0,Wunderground v.1.15,2013-04-15 08:28:00,
2013-04-15 01:42:00,41.2,37.3,29.90,South,181,0.0,0.0,86,0.00,,,0.00,0,Wunderground v.1.15,2013-04-15 08:42:00,
2013-04-15 01:46:00,41.2,37.6,29.90,South,182,0.0,0.0,87,0.00,,,0.00,0,Wunderground v.1.15,2013-04-15 08:46:00,
2013-04-15 01:56:00,41.2,37.9,29.90,South,181,0.0,0.0,88,0.00,,,0.00,0,Wunderground v.1.15,2013-04-15 08:56:00,
2013-04-15 02:06:00,41.1,37.8,29.90,South,181,0.0,0.0,88,0.00,,,0.00,0,Wunderground v.1.15,2013-04-15 09:06:00,
2013-04-15 02:21:00,41.1,37.8,29.90,South,181,0.0,0.0,88,0.00,,,0.00,0,Wunderground v.1.15,2013-04-15 09:21:00,
2013-04-15 02:27:00,41.1,38.1,29.90,South,181,0.0,0.0,89,0.00,,,0.00,0,Wunderground v.1.15,2013-04-15 09:27:00,
2013-04-15 02:36:00,41.2,38.2,29.90,South,182,0.0,0.0,89,0.00,,,0.00,0,Wunderground v.1.15,2013-04-15 09:36:00,
2013-04-15 02:47:00,41.6,38.6,29.90,South,181,0.0,1.0,89,0.00,,,0.00,0,Wunderground v.1.15,2013-04-15 09:47:00,
2013-04-15 02:57:00,41.9,38.9,29.90,South,181,0.0,0.0,89,0.00,,,0.00,0,Wunderground v.1.15,2013-04-15 09:57:00,
2013-04-15 03:07:00,42.1,39.1,29.90,South,181,0.0,0.0,89,0.00,,,0.00,0,Wunderground v.1.15,2013-04-15 10:07:00,
2013-04-15 03:17:00,42.1,38.8,29.90,South,181,0.0,1.0,88,0.00,,,0.00,0,Wunderground v.1.15,2013-04-15 10:17:00,
2013-04-15 03:27:00,42.2,38.9,29.90,South,179,0.0,0.0,88,0.00,,,0.00,0,Wunderground v.1.15,2013-04-15 10:27:00,
2013-04-15 03:37:00,42.2,38.9,29.90,South,179,0.0,0.0,88,0.00,,,0.00,0,Wunderground v.1.15,2013-04-15 10:37:00,
2013-04-15 03:47:00,42.1,38.5,29.90,South,179,0.0,0.0,87,0.00,,,0.00,0,Wunderground v.1.15,2013-04-15 10:47:00,
2013-04-15 03:57:00,42.1,38.5,29.90,South,179,0.0,1.0,87,0.00,,,0.00,0,Wunderground v.1.15,2013-04-15 10:57:00,
2013-04-15 04:07:00,41.9,38.3,29.90,South,179,0.0,0.0,87,0.00,,,0.00,0,Wunderground v.1.15,2013-04-15 11:07:00,
2013-04-15 04:17:00,41.9,38.3,29.90,South,179,0.0,0.0,87,0.00,,,0.00,0,Wunderground v.1.15,2013-04-15 11:17:00,
2013-04-15 04:27:00,41.8,38.5,29.90,South,181,0.0,2.0,88,0.00,,,0.00,0,Wunderground v.1.15,2013-04-15 11:27:00,
2013-04-15 04:37:00,41.6,38.6,29.90,South,179,0.0,0.0,89,0.00,,,0.00,0,Wunderground v.1.15,2013-04-15 11:37:00,
2013-04-15 04:46:00,41.5,38.8,29.91,South,181,0.0,0.0,90,0.00,,,0.00,0,Wunderground v.1.15,2013-04-15 11:46:00,
2013-04-15 04:56:00,41.2,38.5,29.91,South,181,0.0,0.0,90,0.00,,,0.00,0,Wunderground v.1.15,2013-04-15 11:56:00,
2013-04-15 05:11:00,40.6,38.2,29.90,South,184,0.0,0.0,91,0.00,,,0.00,0,Wunderground v.1.15,2013-04-15 12:11:00,
2013-04-15 05:16:00,40.5,38.4,29.90,South,184,0.0,0.0,92,0.00,,,0.00,0,Wunderground v.1.15,2013-04-15 12:16:00,
2013-04-15 05:26:00,40.2,38.1,29.90,South,184,0.0,0.0,92,0.00,,,0.00,0,Wunderground v.1.15,2013-04-15 12:26:00,
2013-04-15 05:31:00,40.1,38.0,29.91,South,184,0.0,0.0,92,0.00,,,0.00,0,Wunderground v.1.15,2013-04-15 12:31:00,
2013-04-15 05:36:00,40.1,38.2,29.91,South,184,0.0,0.0,93,0.00,,,0.00,0,Wunderground v.1.15,2013-04-15 12:36:00,
2013-04-15 05:47:00,39.9,38.0,29.91,South,184,0.0,0.0,93,0.00,,,0.00,0,Wunderground v.1.15,2013-04-15 12:47:00,
2013-04-15 05:57:00,39.9,38.0,29.91,South,184,0.0,0.0,93,0.00,,,0.00,0,Wunderground v.1.15,2013-04-15 12:57:00,
2013-04-15 06:07:00,39.8,38.2,29.91,South,182,0.0,0.0,94,0.00,,,0.00,0,Wunderground v.1.15,2013-04-15 13:07:00,
2013-04-15 06:21:00,40.1,38.5,29.91,South,184,0.0,0.0,94,0.00,,,0.00,5,Wunderground v.1.15,2013-04-15 13:21:00,
2013-04-15 06:27:00,40.1,38.8,29.91,South,184,0.0,0.0,95,0.00,,,0.00,5,Wunderground v.1.15,2013-04-15 13:27:00,
2013-04-15 06:37:00,40.3,39.0,29.92,South,182,0.0,0.0,95,0.00,,,0.00,9,Wunderground v.1.15,2013-04-15 13:37:00,
2013-04-15 06:52:00,40.3,39.0,29.92,South,184,0.0,0.0,95,0.00,,,0.00,14,Wunderground v.1.15,2013-04-15 13:52:00,
2013-04-15 06:57:00,40.3,39.0,29.92,South,184,0.0,0.0,95,0.00,,,0.00,19,Wunderground v.1.15,2013-04-15 13:57:00,
2013-04-15 07:07:00,40.5,38.9,29.93,South,182,0.0,0.0,94,0.00,,,0.00,23,Wunderground v.1.15,2013-04-15 14:07:00,
2013-04-15 07:22:00,40.6,39.0,29.94,South,182,0.0,0.0,94,0.00,,,0.00,26,Wunderground v.1.15,2013-04-15 14:22:00,
2013-04-15 07:28:00,40.8,39.2,29.94,South,182,0.0,0.0,94,0.00,,,0.00,37,Wunderground v.1.15,2013-04-15 14:28:00,
2013-04-15 07:38:00,40.9,39.0,29.94,South,182,0.0,0.0,93,0.00,,,0.00,44,Wunderground v.1.15,2013-04-15 14:38:00,
2013-04-15 07:51:00,41.5,39.6,29.95,South,181,0.0,2.0,93,0.00,,,0.00,51,Wunderground v.1.15,2013-04-15 14:51:00,
2013-04-15 07:56:00,41.3,39.2,29.95,South,181,0.0,2.0,92,0.00,,,0.00,65,Wunderground v.1.15,2013-04-15 14:56:00,
2013-04-15 08:06:00,41.6,39.4,29.95,South,179,0.0,1.0,92,0.00,,,0.00,76,Wunderground v.1.15,2013-04-15 15:06:00,
2013-04-15 08:16:00,41.9,39.7,29.95,South,172,0.0,0.0,92,0.00,,,0.00,93,Wunderground v.1.15,2013-04-15 15:16:00,
2013-04-15 08:21:00,42.1,39.9,29.95,SSE,148,0.0,2.0,92,0.00,,,0.00,114,Wunderground v.1.15,2013-04-15 15:21:00,
2013-04-15 08:27:00,42.1,39.9,29.95,SSE,150,0.0,2.0,92,0.00,,,0.00,135,Wunderground v.1.15,2013-04-15 15:27:00,
2013-04-15 08:37:00,42.5,40.3,29.95,SE,137,0.0,0.0,92,0.00,,,0.00,134,Wunderground v.1.15,2013-04-15 15:37:00,
2013-04-15 08:47:00,42.3,39.9,29.96,SSE,147,0.0,0.0,91,0.00,,,0.00,86,Wunderground v.1.15,2013-04-15 15:47:00,
2013-04-15 08:57:00,42.5,39.8,29.96,SW,223,0.0,0.0,90,0.00,,,0.00,174,Wunderground v.1.15,2013-04-15 15:57:00,
2013-04-15 09:07:00,43.3,40.3,29.96,SW,224,0.0,0.0,89,0.00,,,0.00,438,Wunderground v.1.15,2013-04-15 16:07:00,
2013-04-15 09:17:00,44.3,40.7,29.96,SW,224,0.0,0.0,87,0.00,,,0.00,563,Wunderground v.1.15,2013-04-15 16:17:00,
2013-04-15 09:27:00,44.8,40.0,29.96,WSW,237,1.0,1.0,83,0.00,,,0.00,582,Wunderground v.1.15,2013-04-15 16:27:00,
2013-04-15 09:37:00,45.5,39.7,29.97,WSW,248,1.0,3.0,80,0.00,,,0.00,97,Wunderground v.1.15,2013-04-15 16:37:00,
2013-04-15 09:52:00,44.5,39.0,29.97,WSW,251,2.0,2.0,81,0.00,,,0.00,187,Wunderground v.1.15,2013-04-15 16:52:00,
2013-04-15 09:57:00,44.6,38.8,29.97,WSW,253,1.0,2.0,80,0.00,,,0.00,243,Wunderground v.1.15,2013-04-15 16:57:00,
2013-04-15 10:07:00,45.2,39.1,29.97,WSW,258,2.0,5.0,79,0.00,,,0.00,750,Wunderground v.1.15,2013-04-15 17:07:00,
2013-04-15 10:12:00,46.1,39.6,29.97,West,268,2.0,3.0,78,0.00,,,0.00,185,Wunderground v.1.15,2013-04-15 17:12:00,
2013-04-15 10:17:00,46.2,39.4,29.97,West,270,1.0,3.0,77,0.00,,,0.00,90,Wunderground v.1.15,2013-04-15 17:17:00,
2013-04-15 10:28:00,46.1,38.3,29.97,West,268,1.0,1.0,74,0.00,,,0.00,81,Wunderground v.1.15,2013-04-15 17:28:00,
2013-04-15 10:32:00,45.8,38.0,29.97,West,271,1.0,4.0,74,0.00,,,0.00,86,Wunderground v.1.15,2013-04-15 17:32:00,
2013-04-15 10:37:00,45.7,37.9,29.97,WNW,289,2.0,2.0,74,0.00,,,0.00,148,Wunderground v.1.15,2013-04-15 17:37:00,
2013-04-15 10:47:00,46.4,37.1,29.98,WNW,288,1.0,2.0,70,0.00,,,0.00,174,Wunderground v.1.15,2013-04-15 17:47:00,
2013-04-15 10:56:00,46.4,36.8,29.98,NNW,343,3.0,6.0,69,0.00,,,0.00,197,Wunderground v.1.15,2013-04-15 17:56:00,
2013-04-15 11:06:00,47.0,36.6,29.98,NNW,344,4.0,4.0,67,0.00,,,0.00,375,Wunderground v.1.15,2013-04-15 18:06:00,
2013-04-15 11:21:00,47.4,36.6,29.98,NNW,340,4.0,4.0,66,0.00,,,0.00,188,Wunderground v.1.15,2013-04-15 18:21:00,
2013-04-15 11:31:00,47.9,37.1,29.98,NNW,330,2.0,2.0,66,0.00,,,0.00,262,Wunderground v.1.15,2013-04-15 18:31:00,
2013-04-15 11:37:00,47.9,37.1,29.98,NNW,339,3.0,3.0,66,0.00,,,0.00,315,Wunderground v.1.15,2013-04-15 18:37:00,
2013-04-15 11:41:00,48.2,37.4,29.98,North,350,2.0,8.0,66,0.00,,,0.00,368,Wunderground v.1.15,2013-04-15 18:41:00,
2013-04-15 11:47:00,48.3,36.3,29.98,NW,312,3.0,8.0,63,0.00,,,0.00,477,Wunderground v.1.15,2013-04-15 18:47:00,
2013-04-15 11:51:00,49.1,36.6,29.98,NNW,336,4.0,4.0,62,0.00,,,0.00,962,Wunderground v.1.15,2013-04-15 18:51:00,
2013-04-15 11:57:00,49.5,35.8,29.98,NNW,328,5.0,5.0,59,0.00,,,0.00,962,Wunderground v.1.15,2013-04-15 18:57:00,
2013-04-15 12:07:00,49.4,35.7,29.98,North,353,5.0,8.0,59,0.00,,,0.00,262,Wunderground v.1.15,2013-04-15 19:07:00,
2013-04-15 12:17:00,49.4,36.1,29.99,North,353,3.0,7.0,60,0.00,,,0.00,352,Wunderground v.1.15,2013-04-15 19:17:00,
2013-04-15 12:27:00,49.6,36.3,29.99,NNW,337,4.0,4.0,60,0.00,,,0.00,324,Wunderground v.1.15,2013-04-15 19:27:00,
2013-04-15 12:37:00,49.5,34.9,29.99,West,280,4.0,4.0,57,0.00,,,0.00,241,Wunderground v.1.15,2013-04-15 19:37:00,
2013-04-15 12:47:00,49.2,35.9,29.99,WNW,292,4.0,5.0,60,0.00,,,0.00,341,Wunderground v.1.15,2013-04-15 19:47:00,
2013-04-15 12:57:00,49.5,37.8,29.99,NW,309,5.0,7.0,64,0.00,,,0.00,318,Wunderground v.1.15,2013-04-15 19:57:00,
2013-04-15 13:02:00,49.6,37.9,29.99,NNW,335,5.0,6.0,64,0.00,,,0.00,883,Wunderground v.1.15,2013-04-15 20:02:00,
2013-04-15 13:07:00,50.1,39.2,29.99,WNW,301,5.0,6.0,66,0.00,,,0.00,255,Wunderground v.1.15,2013-04-15 20:07:00,
2013-04-15 13:22:00,49.2,38.3,29.99,NW,325,5.0,5.0,66,0.00,,,0.00,310,Wunderground v.1.15,2013-04-15 20:22:00,
2013-04-15 13:28:00,50.1,38.8,29.99,NNW,343,3.0,5.0,65,0.00,,,0.00,246,Wunderground v.1.15,2013-04-15 20:28:00,
2013-04-15 13:38:00,50.1,38.4,29.99,SSE,152,5.0,5.0,64,0.00,,,0.00,867,Wunderground v.1.15,2013-04-15 20:38:00,
2013-04-15 13:42:00,50.4,37.0,29.99,NW,320,6.0,8.0,60,0.00,,,0.00,850,Wunderground v.1.15,2013-04-15 20:42:00,
2013-04-15 13:48:00,50.8,37.4,29.99,NW,308,7.0,8.0,60,0.00,,,0.00,864,Wunderground v.1.15,2013-04-15 20:48:00,
2013-04-15 14:01:00,51.7,38.7,30.00,WNW,299,6.0,6.0,61,0.00,,,0.00,808,Wunderground v.1.15,2013-04-15 21:01:00,
2013-04-15 14:06:00,51.9,38.4,30.00,WNW,296,6.0,7.0,60,0.00,,,0.00,797,Wunderground v.1.15,2013-04-15 21:06:00,
2013-04-15 14:11:00,51.7,38.3,30.00,WNW,298,6.0,8.0,60,0.00,,,0.00,790,Wunderground v.1.15,2013-04-15 21:11:00,
2013-04-15 14:16:00,52.5,38.1,29.99,WNW,291,5.0,8.0,58,0.00,,,0.00,801,Wunderground v.1.15,2013-04-15 21:16:00,
2013-04-15 14:26:00,52.5,37.2,29.99,NNW,339,5.0,7.0,56,0.00,,,0.00,801,Wunderground v.1.15,2013-04-15 21:26:00,
2013-04-15 14:37:00,52.2,37.4,29.99,NW,319,7.0,7.0,57,0.00,,,0.00,767,Wunderground v.1.15,2013-04-15 21:37:00,
2013-04-15 14:41:00,52.3,36.1,29.99,NNW,330,7.0,7.0,54,0.00,,,0.00,762,Wunderground v.1.15,2013-04-15 21:41:00,
2013-04-15 14:47:00,52.2,36.5,29.99,WNW,299,7.0,10.0,55,0.00,,,0.00,755,Wunderground v.1.15,2013-04-15 21:47:00,
2013-04-15 14:57:00,52.5,36.8,29.99,NW,304,7.0,8.0,55,0.00,,,0.00,728,Wunderground v.1.15,2013-04-15 21:57:00,
2013-04-15 15:07:00,52.9,35.7,29.99,NW,319,6.0,10.0,52,0.00,,,0.00,720,Wunderground v.1.15,2013-04-15 22:07:00,
2013-04-15 15:21:00,52.5,34.4,30.00,North,350,8.0,8.0,50,0.00,,,0.00,637,Wunderground v.1.15,2013-04-15 22:21:00,
2013-04-15 15:27:00,52.3,34.2,30.00,NW,304,8.0,8.0,50,0.00,,,0.00,681,Wunderground v.1.15,2013-04-15 22:27:00,
2013-04-15 15:42:00,53.6,34.4,29.99,NNW,346,5.0,6.0,48,0.00,,,0.00,655,Wunderground v.1.15,2013-04-15 22:42:00,
2013-04-15 15:47:00,53.3,34.1,29.99,NNW,333,5.0,6.0,48,0.00,,,0.00,644,Wunderground v.1.15,2013-04-15 22:47:00,
2013-04-15 15:56:00,53.6,34.4,29.99,NNW,342,5.0,5.0,48,0.00,,,0.00,621,Wunderground v.1.15,2013-04-15 22:56:00,
2013-04-15 16:06:00,53.2,34.0,29.99,NW,322,6.0,6.0,48,0.00,,,0.00,598,Wunderground v.1.15,2013-04-15 23:06:00,
2013-04-15 16:21:00,53.3,34.6,30.00,NW,304,6.0,6.0,49,0.00,,,0.00,544,Wunderground v.1.15,2013-04-15 23:21:00,
2013-04-15 16:27:00,53.2,35.5,30.00,NW,311,8.0,8.0,51,0.00,,,0.00,524,Wunderground v.1.15,2013-04-15 23:27:00,
2013-04-15 16:37:00,53.1,35.9,30.00,West,281,7.0,8.0,52,0.00,,,0.00,517,Wunderground v.1.15,2013-04-15 23:37:00,
2013-04-15 16:51:00,52.9,35.2,30.00,North,353,6.0,6.0,51,0.00,,,0.00,479,Wunderground v.1.15,2013-04-15 23:51:00,
2013-04-15 16:57:00,52.2,35.1,30.00,NW,320,7.0,7.0,52,0.00,,,0.00,466,Wunderground v.1.15,2013-04-15 23:57:00,
2013-04-15 17:07:00,51.7,36.0,30.01,WNW,294,6.0,7.0,55,0.00,,,0.00,158,Wunderground v.1.15,2013-04-16 00:07:00,
2013-04-15 17:17:00,51.6,37.3,30.01,NW,325,7.0,7.0,58,0.00,,,0.00,169,Wunderground v.1.15,2013-04-16 00:17:00,
2013-04-15 17:27:00,51.7,37.8,30.01,NW,305,5.0,6.0,59,0.00,,,0.00,65,Wunderground v.1.15,2013-04-16 00:27:00,
2013-04-15 17:37:00,51.3,38.7,30.02,WNW,296,8.0,8.0,62,0.00,,,0.00,83,Wunderground v.1.15,2013-04-16 00:37:00,
2013-04-15 17:51:00,52.5,39.0,30.02,WNW,285,6.0,16.0,60,0.00,,,0.00,345,Wunderground v.1.15,2013-04-16 00:51:00,
2013-04-15 18:06:00,52.5,40.3,30.03,North,354,6.0,7.0,63,0.00,,,0.00,292,Wunderground v.1.15,2013-04-16 01:06:00,
2013-04-15 18:16:00,52.2,39.6,30.03,NNW,330,7.0,7.0,62,0.00,,,0.00,229,Wunderground v.1.15,2013-04-16 01:16:00,
2013-04-15 18:26:00,52.0,39.4,30.03,NNW,337,7.0,7.0,62,0.00,,,0.00,241,Wunderground v.1.15,2013-04-16 01:26:00,
2013-04-15 18:37:00,52.2,40.0,30.03,NW,315,6.0,6.0,63,0.00,,,0.00,220,Wunderground v.1.15,2013-04-16 01:37:00,
2013-04-15 18:47:00,52.3,40.1,30.04,WNW,299,5.0,5.0,63,0.00,,,0.00,195,Wunderground v.1.15,2013-04-16 01:47:00,
2013-04-15 18:57:00,52.0,40.2,30.04,NNW,346,5.0,5.0,64,0.00,,,0.00,49,Wunderground v.1.15,2013-04-16 01:57:00,
2013-04-15 19:07:00,50.8,37.4,30.05,NW,311,3.0,5.0,60,0.00,,,0.00,39,Wunderground v.1.15,2013-04-16 02:07:00,
2013-04-15 19:17:00,49.5,39.0,30.05,NW,312,2.0,2.0,67,0.00,,,0.00,97,Wunderground v.1.15,2013-04-16 02:17:00,
2013-04-15 19:27:00,49.1,39.7,30.05,NNW,346,0.0,1.0,70,0.00,,,0.00,86,Wunderground v.1.15,2013-04-16 02:27:00,
2013-04-15 19:37:00,47.9,39.3,30.06,ESE,117,2.0,3.0,72,0.00,,,0.00,55,Wunderground v.1.15,2013-04-16 02:37:00,
2013-04-15 19:47:00,47.0,39.1,30.06,ESE,112,3.0,7.0,74,0.00,,,0.00,28,Wunderground v.1.15,2013-04-16 02:47:00,
2013-04-15 19:56:00,46.1,39.0,30.06,East,100,4.0,5.0,76,0.00,,,0.00,16,Wunderground v.1.15,2013-04-16 02:56:00,
2013-04-15 20:06:00,45.5,38.7,30.06,ESE,104,2.0,6.0,77,0.00,,,0.00,7,Wunderground v.1.15,2013-04-16 03:06:00,
2013-04-15 20:21:00,45.1,38.6,30.07,ESE,114,2.0,2.0,78,0.00,,,0.00,0,Wunderground v.1.15,2013-04-16 03:21:00,
2013-04-15 20:31:00,44.9,38.5,30.08,ESE,114,1.0,1.0,78,0.00,,,0.00,0,Wunderground v.1.15,2013-04-16 03:31:00,
2013-04-15 20:37:00,44.8,38.4,30.08,ESE,114,1.0,1.0,78,0.00,,,0.00,0,Wunderground v.1.15,2013-04-16 03:37:00,
2013-04-15 20:46:00,44.6,38.2,30.08,ESE,109,1.0,1.0,78,0.00,,,0.00,0,Wunderground v.1.15,2013-04-16 03:46:00,
2013-04-15 20:57:00,44.5,38.4,30.08,ESE,112,1.0,1.0,79,0.00,,,0.00,0,Wunderground v.1.15,2013-04-16 03:57:00,
2013-04-15 21:01:00,44.5,38.7,30.09,ESE,113,1.0,1.0,80,0.00,,,0.00,0,Wunderground v.1.15,2013-04-16 04:01:00,
2013-04-15 21:07:00,44.5,39.0,30.09,ESE,112,1.0,1.0,81,0.00,,,0.00,0,Wunderground v.1.15,2013-04-16 04:07:00,
2013-04-15 21:17:00,44.3,38.8,30.09,ESE,112,1.0,1.0,81,0.00,,,0.00,0,Wunderground v.1.15,2013-04-16 04:17:00,
2013-04-15 21:21:00,44.3,38.8,30.09,ESE,116,1.0,1.0,81,0.00,,,0.00,0,Wunderground v.1.15,2013-04-16 04:21:00,
2013-04-15 21:27:00,44.3,39.2,30.09,ESE,116,1.0,1.0,82,0.00,,,0.00,0,Wunderground v.1.15,2013-04-16 04:27:00,
2013-04-15 21:31:00,44.2,39.1,30.10,ESE,116,0.0,0.0,82,0.00,,,0.00,0,Wunderground v.1.15,2013-04-16 04:31:00,
2013-04-15 21:37:00,44.2,39.1,30.10,ESE,117,0.0,2.0,82,0.00,,,0.00,0,Wunderground v.1.15,2013-04-16 04:37:00,
2013-04-15 21:47:00,44.1,39.3,30.10,ESE,117,0.0,1.0,83,0.00,,,0.00,0,Wunderground v.1.15,2013-04-16 04:47:00,
2013-04-15 21:52:00,43.9,39.1,30.10,ESE,117,0.0,1.0,83,0.00,,,0.00,0,Wunderground v.1.15,2013-04-16 04:52:00,
2013-04-15 22:02:00,43.8,39.0,30.10,ESE,116,0.0,0.0,83,0.00,,,0.00,0,Wunderground v.1.15,2013-04-16 05:02:00,
2013-04-15 22:07:00,43.5,39.0,30.10,ESE,119,0.0,0.0,84,0.00,,,0.00,0,Wunderground v.1.15,2013-04-16 05:07:00,
2013-04-15 22:17:00,43.1,38.9,30.11,ESE,119,0.0,0.0,85,0.00,,,0.00,0,Wunderground v.1.15,2013-04-16 05:17:00,
2013-04-15 22:27:00,42.8,38.6,30.11,ESE,119,0.0,0.0,85,0.00,,,0.00,0,Wunderground v.1.15,2013-04-16 05:27:00,
2013-04-15 22:37:00,42.8,38.9,30.11,ESE,119,0.0,0.0,86,0.00,,,0.00,0,Wunderground v.1.15,2013-04-16 05:37:00,
2013-04-15 22:47:00,42.6,38.4,30.11,ESE,119,0.0,0.0,85,0.00,,,0.00,0,Wunderground v.1.15,2013-04-16 05:47:00,
2013-04-15 22:56:00,42.3,38.4,30.11,ESE,119,0.0,0.0,86,0.00,,,0.00,0,Wunderground v.1.15,2013-04-16 05:56:00,
2013-04-15 23:06:00,42.2,38.6,30.11,ESE,119,0.0,0.0,87,0.00,,,0.00,0,Wunderground v.1.15,2013-04-16 06:06:00,
2013-04-15 23:16:00,42.2,38.6,30.11,ESE,119,0.0,0.0,87,0.00,,,0.00,0,Wunderground v.1.15,2013-04-16 06:16:00,
2013-04-15 23:26:00,42.2,38.3,30.11,ESE,119,0.0,0.0,86,0.00,,,0.00,0,Wunderground v.1.15,2013-04-16 06:26:00,
2013-04-15 23:37:00,42.1,38.5,30.12,ESE,119,0.0,0.0,87,0.00,,,0.00,0,Wunderground v.1.15,2013-04-16 06:37:00,
2013-04-15 23:47:00,41.8,38.5,30.13,ESE,119,0.0,0.0,88,0.00,,,0.00,0,Wunderground v.1.15,2013-04-16 06:47:00,
2013-04-15 23:57:00,41.6,38.6,30.13,ESE,119,0.0,0.0,89,0.00,,,0.00,0,Wunderground v.1.15,2013-04-16 06:57:00,